Regional Weather Roundup
Issued by NWS Upton, NY

Home | Current Version | Previous Version | Text Only | Print | Product List | Glossary On
Versions: 1 2 3 4 5 6 7 8 9 10 11 12 13 14 15 16 17 18 19 20 21 22 23 24 25 26 27
000
ASUS41 KOKX 170609
RWROKX

REGIONAL WEATHER ROUNDUP
NATIONAL WEATHER SERVICE NEW YORK NY
200 AM EDT TUE OCT 17 2017

NOTE: "FAIR" INDICATES FEW OR NO CLOUDS BELOW 12,000 FEET WITH NO
SIGNIFICANT WEATHER AND/OR OBSTRUCTIONS TO VISIBILITY.

NYZ071-072-176-178-NJZ106-104-170700-
NEW YORK CITY METRO AREA

CITY           SKY/WX    TMP DP  RH WIND       PRES   REMARKS
Central Park   CLEAR     46  30  53 VRB5      30.26R
Bronx Bot Gard   N/A     45  32  61 NW2       30.25S
LaGuardia APRT CLEAR     48  32  53 NW12      30.23R
Kennedy INTL   CLEAR     46  32  58 NW12      30.24R
Breezy Point     N/A     46 N/A N/A N10         N/A
Newark/Liberty CLEAR     46  30  53 NW10      30.24R
Teterboro      CLEAR     44  30  57 N6        30.23R
$$

NYZ177-179-078>081-170700-
LONG ISLAND NEW YORK

CITY           SKY/WX    TMP DP  RH WIND       PRES   REMARKS
Jones Beach      N/A     46 N/A N/A N12         N/A
Matinecock PT    N/A     48 N/A N/A N15         N/A
Farmingdale    CLEAR     47  33  58 N10       30.22R
MacArthur/ISP  CLEAR     47  34  60 N12       30.21R
Shirley        CLEAR     47  35  63 N7        30.21R
Mt Sinai Harb    N/A    N/A N/A N/A N16G23      N/A
Westhampton    CLEAR     46  35  65 N8        30.21S
East Hampton   MOCLDY    46  36  68 NE8       30.19R
Montauk          N/A     49  35  58 N10G22    30.19S
$$

NYZ052-065-067-170700-
HUDSON VALLEY

CITY           SKY/WX    TMP DP  RH WIND       PRES   REMARKS
White Plains   CLEAR     39  32  76 NW7       30.22R WCI  34
Larchmont Harb   N/A     46 N/A N/A NW6         N/A
Croton On Huds   N/A     43 N/A N/A N5          N/A
Newburgh       NOT AVBL
Montgomery     CLEAR     39  32  76 NW6       30.23R WCI  35
Poughkeepsie   CLEAR     36  33  89 CALM      30.23R
Albany         CLEAR     37  32  82 CALM      30.25R
$$

NJZ001-105-106-008-010-013-015-019>022-104-170700-
NEW JERSEY

CITY           SKY/WX    TMP DP  RH WIND       PRES   REMARKS
Newark/Liberty CLEAR     46  30  53 NW10      30.24R
Teterboro      CLEAR     44  30  57 N6        30.23R
Caldwell       CLEAR     40  33  76 CALM      30.25R
Somerville     CLEAR     37  34  89 CALM      30.24S
Linden         FAIR      44  31  59 NW6       30.25R
Perth Amboy      N/A     45 N/A N/A NW9         N/A
Sussex         CLEAR     35  32  88 CALM      30.25R
Andover          N/A     38  31  76 N5        30.25R WCI  34
Trenton        CLEAR     43  32  65 CALM      30.25R
Millville      CLEAR     45  38  76 N7        30.26R
Atlantic City  CLEAR     42  35  76 N6        30.24S
Wrightstown    NOT AVBL
Toms River       N/A     40  34  79 NW6       30.25R
Belmar         CLEAR     42  33  70 NW8       30.25R
$$

PAZ047>061-062-071-170700-
EASTERN PENNSYLVANIA

CITY           SKY/WX    TMP DP  RH WIND       PRES   REMARKS
Philadelphia   CLEAR     46  35  65 N3        30.28R
Allentown      CLEAR     41  31  67 CALM      30.27R
Scranton       CLEAR     38  32  79 VRB3      30.26R
$$

CTZ002-004>006-009-010-012-RIZ004-006-007-MAZ004-011-015-170700-
SOUTHERN NEW ENGLAND
 IN CT

CITY           SKY/WX    TMP DP  RH WIND       PRES   REMARKS
Bradley INTL   PTCLDY    41  34  76 NW8       30.21R
Hartford       PTCLDY    43  34  70 VRB6      30.21R
Danbury        CLEAR     40  34  79 CALM      30.23R
Wtrbury/Oxford CLEAR     38  34  85 NW6       30.21R WCI  33
Norwalk Harbor   N/A     45 N/A N/A NW13        N/A
Bridgeport     CLEAR     45  35  68 NW8       30.22R
Meriden        CLEAR     40  35  83 NW5       30.21R
New Haven      CLEAR     44  34  67 N7        30.21R
Chester        FAIR      41  36  81 NW7       30.19R
Groton         CLEAR     42  36  79 N5        30.19R
Wilimantic     CLEAR     39  36  89 N5        30.20R

 IN RI

CITY           SKY/WX    TMP DP  RH WIND       PRES   REMARKS
Providence     CLEAR     42  34  73 N7        30.18S
Block Island   CLEAR     46  34  62 N17G24    30.18R
Westerly       CLEAR     43  38  82 N6        30.19R
 IN MA

CITY           SKY/WX    TMP DP  RH WIND       PRES   REMARKS
Boston         CLEAR     43  33  68 NW10      30.17S
Worcester      CLEAR     38  29  70 NW9       30.17R WCI  31
Westfield      CLEAR     38  34  85 N3        30.21R
Provincetown   CLOUDY    49  39  68 N15G23    30.14S
Nantucket      CLOUDY    51  45  79 N18G29    30.11R
$$

ANZ330-335-338-340-345-350-353-355-170700-
COASTAL MARINE OBSERVATIONS


STATION/POSITION TIME  SKY/WX   TEMP    WIND        PRES    VSBY  WAVE
                                AIR SEA DIR/SP/G                  HT/PER
                 (UTC)          (F)     (DEG/KT/KT) (MB)    (MI)  (FT/S)
NY HARB ENTRANCE 0550            51 66  360/ 17/ 21 1022.6          3/ 4
20 S FIRE ISLAND 0550            52 64   10/ 19/ 25 1022.3          5/ 5
GREAT SOUTH BAY  0530            49 63  360/ 12/ 16   N/A
15 E BARNEGAT LI 0530               67                N/A           6/ 6
HUDSON CANYON    0550            55 65  360/ 21/ 25 1020.6          7/ 7
KINGS POINT      0536               66   20/ 11/ 14 1024.3
EXECUTION ROCKS  0530            50     350/ 12/ 16   N/A
WESTERN LI SOUND 0449            49     350/ 12/ 17   N/A           1
CENTRAL LI SOUND 0500            50     340/ 17/ 21   N/A           2
EASTERN LI SOUND NOT AVBL
ROBBINS REEF     0548                   330/ 12/ 16 1024.4
$$


>>>>>>>>>>>>>>>>>>>>>>>>>>>> KEY <<<<<<<<<<<<<<<<<<<<<<<<<<<
>                                                          <
>     SKY/WX - Sky Condition/Present Weather               <
>     TMP    - Temperature in Fahrenheit                   <
>     DP     - Dew Point in Fahrenheit                     <
>     RH     - Relative Humidity in Percent                <
>     WIND   - Direction (from) and Speed in MPH           <
>     PRES   - Mean Sea Level Pressure (inches of Hg)      <
>     WCI    - Wind Chill Index                            <
>     VSB    - VISIBILITY IN MILES                         <
>     HX     - HEAT INDEX                                  <
>     TC     - TEMPERATURE IN CELSIUS                      <
>     VRB    - VARIABLE WIND DIRECTION                     <
>                                                          <
>>>>>>>>>>>>>>>>>>>>>>>>>>>> KEY <<<<<<<<<<<<<<<<<<<<<<<<<<<




USA.gov is the U.S. government's official web portal to all federal, state and local government web resources and services.